Regional Weather Roundup
Issued by NWS

Home | Current Version | Previous Version | Text Only | Print | Product List | Glossary On
Versions: 1 2 3 4 5 6 7 8 9 10 11 12 13 14 15 16 17 18 19 20 21 22 23 24 25 26 27 28 29 30 31 32 33 34 35 36 37 38 39 40 41 42 43 44 45 46 47 48 49 50
000
ASUS46 KSTO 290704
RWRCA

NORTHERN AND CENTRAL CA REGIONAL WEATHER ROUNDUP
NATIONAL WEATHER SERVICE SACRAMENTO CA
1200 AM PDT TUE JUL 29 2014

NOTE: FAIR INDICATES FEW OR NO CLOUDS BELOW 12,000 FEET WITH NO
SIGNIFICANT WEATHER AND/OR OBSTRUCTIONS TO VISIBILITY.

CAZ001-003-290800-
NORTHWEST AREA

CITY           SKY/WX    TMP DP  RH WIND       PRES   REMARKS
CRESCENT CITY  CLOUDY    55  54  96 SE13      30.08S FOG
UKIAH          CLEAR     72  51  47 SE5       30.02S
$$

CAZ006-505>513-290800-
BAY AREA

CITY           SKY/WX    TMP DP  RH WIND       PRES   REMARKS
SANTA ROSA     CLOUDY    55  53  93 S5        30.04S
SAN RAFAEL     N/A       67  MM  MM MISG
NAPA           CLEAR     59  54  83 CALM      30.04R
CONCORD        PTCLDY    68  48  48 W3        30.02S
OAKLAND CITY   N/A       63  MM  MM MISG
OAKLAND        PTCLDY    62  56  80 NW9       30.05S
SAN FRAN CITY  N/A       59  MM  86 MISG
SAN FRAN ARPT  MOCLDY    62  57  83 NW12      30.05S
LIVERMORE      PTCLDY    71  55  56 NW5       30.02S
HAYWARD        PTCLDY    64  59  83 NW5       30.05R
REDWOOD CITY   N/A       MM  MM  MM MISG
MOFFETT ARPT   PTCLDY    65  59  81 CALM      30.06S
SAN JOSE ARPT  PTCLDY    64  58  80 W6        30.05S
$$
CAZ034-037-514>518-290800-
CENTRAL COAST

CITY           SKY/WX    TMP DP  RH WIND       PRES   REMARKS
WATSONVILLE    CLEAR     63  58  83 CALM      30.07S
SALINAS        PTCLDY    63  58  83 W7        30.06S
MONTEREY       MOCLDY    61  57  87 S3        30.07F
SAN LUIS OBISP CLEAR     63  59  87 SE3       30.05F
SANTA MARIA    CLOUDY    65  60  84 CALM      30.06F
$$
CAZ015-016-290800-
NORTHERN SACRAMENTO VALLEY

CITY           SKY/WX    TMP DP  RH WIND       PRES   REMARKS
REDDING        CLEAR     82  43  25 E3        29.98R
RED BLUFF      CLEAR     82  39  21 SW8       29.98S
OROVILLE       CLEAR     80  38  22 SE9       29.98R
$$
CAZ016>018-290800-
SOUTHERN SACRAMENTO VALLEY

CITY           SKY/WX    TMP DP  RH WIND       PRES   REMARKS
AUBURN         MOCLDY    79  39  24 SE5       30.06F
BEALE AFB      PTCLDY    77  44  30 SE9       29.96S
LINCOLN        FAIR      79  41  25 SE12      29.97S
MARYSVILLE     CLEAR     77  49  37 SE12      29.96S
SAC INTL ARPT  MOCLDY    70  51  51 S12       29.95F
MATHER AIRPORT NOT AVBL
DOWNTOWN SAC   N/A       76  MM  MM MISG
SAC EXEC ARPT  PTCLDY    73  49  42 SW12G17   29.96F
VACAVILLE      PTCLDY    73  47  39 SW12      29.97S
TRAVIS AFB     CLOUDY    67  56  69 SW21      29.97S
$$
CAZ019>021-290800-
SAN JOAQUIN VALLEY

CITY           SKY/WX    TMP DP  RH WIND       PRES   REMARKS
STOCKTON       MOCLDY    75  53  46 N8        29.98F
MODESTO        CLOUDY    80  49  33 N6        29.96F
MERCED         MOCLDY    82  49  31 NW9       29.96S
LEMOORE        PTCLDY    78  50  37 E5        29.97S
FRESNO         MOCLDY    86  49  27 CALM      29.99R
HANFORD        PTCLDY    77  60  55 E3        29.98S
PORTERVILLE    PTCLDY    77  55  47 W6        30.00S
BAKERSFIELD    CLEAR     83  44  25 NW3       29.99R
$$
CAZ011-012-071-290800-
NORTHERN MOUNTAINS

CITY           SKY/WX    TMP DP  RH WIND       PRES   REMARKS
YREKA          PTCLDY    77  45  32 S5        30.10S
MOUNT SHASTA   CLEAR     70  47  43 CALM      30.18R
ALTURAS        MOCLDY    78  37  22 W15       30.18F
$$
CAZ011-012-071-290800-
SIERRA NEVADA MTNS

CITY           SKY/WX    TMP DP  RH WIND       PRES   REMARKS
BLUE CANYON    MOCLDY    69  37  30 E3        30.32F
TRUCKEE        MOCLDY    61  41  48 CALM      30.35S
TAHOE VLY ARPT MOCLDY    64  40  41 CALM      30.36F
MAMMOTH LAKES  FAIR      54  54 100 W5        30.44F
$$



USA.gov is the U.S. government's official web portal to all federal, state and local government web resources and services.